Lexington, NC

12:19 AM EDT on March 29, 2017 (GMT -0400)
Davidson County

Weather History for KEXX - September, 2012

Change the Weather History Date:

Thursday, September 6, 2012

  Actual Average (KINT) Record (KINT)
Temperature  
Mean Temperature 76 °F -  
Max Temperature 82 °F 79 °F 98 °F (1998)
Min Temperature 69 °F 62 °F 49 °F (1967)
Cooling Degree Days 10    
Growing Degree Days 26 (Base 50)    
Moisture  
Dew Point 72 °F    
Average Humidity 92    
Maximum Humidity 100    
Minimum Humidity 70    
Precipitation  
Precipitation 0.13 in - - ()
Sea Level Pressure  
Sea Level Pressure 29.93 in    
Wind  
Wind Speed 1 mph (SSW)    
Max Wind Speed 7 mph    
Max Gust Speed -    
Visibility 9 miles    
Events Rain    
Averages and records for this station are not official NWS values.
T = Trace of Precipitation, MM = Missing Value Source: NWS Daily Summary

Daily Weather History Graph

Daily Weather History Graph

Search for Another Location

Airport or City:

Trip Planner

Search our weather history database for the weather conditions in past years. The results will help you decide how hot, cold, wet, or windy it might be!

Date:

Astronomy

Sep. 06, 2012 Rise Set
Actual Time 6:57 AM EDT 7:40 PM EDT
Civil Twilight 6:31 AM EDT 8:06 PM EDT
Nautical Twilight 6:00 AM EDT 8:37 PM EDT
Astronomical Twilight 5:29 AM EDT 9:08 PM EDT
Moon 11:04 PM EDT (9/6) 12:41 PM EDT (9/6)
Length of Visible Light 13h 35m
Length of Day
12h 43m
Waning Gibbous, 67% of the Moon is Illuminated
Sep 6
Waning Gibbous
Sep 8
Last Quarter
Sep 15
New
Sep 22
First Quarter
Sep 29
Full

Hourly Weather History & Observations

Time (EDT) Temp. Heat Index Dew Point Humidity Pressure Visibility Wind Dir Wind Speed Gust Speed Precip Events Conditions
12:15 AM 73.4 °F - 71.6 °F 94% 29.92 in 10.0 mi Calm Calm - N/A   Clear
12:35 AM 73.4 °F - 71.6 °F 94% 29.92 in 10.0 mi Calm Calm - N/A   Clear
12:55 AM 73.4 °F - 71.6 °F 94% 29.93 in 10.0 mi Calm Calm - N/A   Clear
1:15 AM 73.4 °F - 71.6 °F 94% 29.93 in 10.0 mi Calm Calm - N/A   Clear
1:55 AM 71.6 °F - 71.6 °F 100% 29.93 in 10.0 mi SSW 3.5 mph - N/A   Clear
2:15 AM 71.6 °F - 71.6 °F 100% 29.93 in 10.0 mi Calm Calm - N/A   Clear
2:55 AM 71.6 °F - 71.6 °F 100% 29.92 in 10.0 mi Calm Calm - N/A   Clear
3:15 AM 71.6 °F - 71.6 °F 100% 29.91 in 10.0 mi SSW 3.5 mph - N/A   Clear
3:35 AM 71.6 °F - 71.6 °F 100% 29.91 in 10.0 mi SSW 3.5 mph - N/A   Clear
3:55 AM 71.6 °F - 71.6 °F 100% 29.91 in 10.0 mi Calm Calm - N/A   Clear
4:35 AM 71.6 °F - 71.6 °F 100% 29.90 in 10.0 mi Calm Calm - N/A   Clear
4:55 AM 71.6 °F - 71.6 °F 100% 29.90 in 7.0 mi Calm Calm - N/A   Scattered Clouds
5:15 AM 71.6 °F - 71.6 °F 100% 29.90 in 7.0 mi Calm Calm - N/A   Clear
5:35 AM 71.6 °F - 71.6 °F 100% 29.91 in 7.0 mi Calm Calm - N/A   Clear
5:55 AM 71.6 °F - 71.6 °F 100% 29.91 in 10.0 mi Calm Calm - N/A   Clear
6:15 AM 69.8 °F - 69.8 °F 100% 29.91 in 7.0 mi Calm Calm - N/A   Clear
6:35 AM 69.8 °F - 69.8 °F 100% 29.92 in 7.0 mi Calm Calm - N/A   Clear
6:55 AM 71.6 °F - 71.6 °F 100% 29.93 in 10.0 mi South 4.6 mph - N/A   Clear
7:15 AM 71.6 °F - 71.6 °F 100% 29.93 in 10.0 mi SSW 3.5 mph - N/A   Clear
7:35 AM 71.6 °F - 71.6 °F 100% 29.94 in 10.0 mi SSW 3.5 mph - N/A   Clear
7:55 AM 71.6 °F - 71.6 °F 100% 29.94 in 10.0 mi Calm Calm - N/A   Clear
8:15 AM 71.6 °F - 71.6 °F 100% 29.94 in 10.0 mi South 3.5 mph - N/A   Clear
8:35 AM 71.6 °F - 71.6 °F 100% 29.95 in 10.0 mi SW 3.5 mph - N/A   Clear
8:55 AM 73.4 °F - 73.4 °F 100% 29.95 in 10.0 mi South 5.8 mph - N/A   Scattered Clouds
9:15 AM 73.4 °F - 73.4 °F 100% 29.95 in 10.0 mi South 4.6 mph - N/A   Scattered Clouds
9:55 AM 73.4 °F - 73.4 °F 100% 29.96 in 10.0 mi South 4.6 mph - N/A   Scattered Clouds
10:15 AM 75.2 °F - 73.4 °F 94% 29.96 in 10.0 mi Calm Calm - N/A   Scattered Clouds
10:35 AM 78.8 °F - 71.6 °F 78% 29.96 in 10.0 mi SSW 4.6 mph - N/A   Scattered Clouds
10:55 AM 78.8 °F - 71.6 °F 78% 29.96 in 10.0 mi Calm Calm - N/A   Clear
11:15 AM 78.8 °F - 71.6 °F 78% 29.96 in 10.0 mi Calm Calm - N/A   Scattered Clouds
11:35 AM 78.8 °F - 71.6 °F 78% 29.96 in 10.0 mi SSW 3.5 mph - N/A   Mostly Cloudy
11:55 AM 80.6 °F 84.6 °F 71.6 °F 74% 29.96 in 10.0 mi South 3.5 mph - N/A   Scattered Clouds
12:15 PM 78.8 °F - 71.6 °F 78% 29.96 in 10.0 mi SSW 3.5 mph - N/A   Scattered Clouds
12:35 PM 80.6 °F 84.6 °F 71.6 °F 74% 29.96 in 10.0 mi Calm Calm - N/A   Mostly Cloudy
12:55 PM 80.6 °F 84.6 °F 71.6 °F 74% 29.95 in 10.0 mi SSW 5.8 mph - N/A   Mostly Cloudy
1:15 PM 80.6 °F 84.6 °F 71.6 °F 74% 29.94 in 10.0 mi South 5.8 mph - N/A   Scattered Clouds
1:35 PM 80.6 °F 84.6 °F 71.6 °F 74% 29.94 in 10.0 mi SSW 3.5 mph - N/A   Scattered Clouds
1:55 PM 82.4 °F 87.2 °F 71.6 °F 70% 29.93 in 10.0 mi SW 3.5 mph - N/A   Clear
2:15 PM 82.4 °F 87.2 °F 71.6 °F 70% 29.93 in 10.0 mi WSW 3.5 mph - N/A   Scattered Clouds
2:35 PM 77.0 °F - 69.8 °F 78% 29.93 in 7.0 mi Calm Calm - N/A   Mostly Cloudy
2:55 PM 77.0 °F - 71.6 °F 83% 29.93 in 10.0 mi Calm Calm - N/A   Mostly Cloudy
3:15 PM 78.8 °F - 71.6 °F 78% 29.93 in 10.0 mi SSE 3.5 mph - N/A   Mostly Cloudy
3:35 PM 75.2 °F - 71.6 °F 89% 29.92 in 1.2 mi NNE 6.9 mph - 0.13 in Rain Rain
3:55 PM 77.0 °F - 77.0 °F 100% 29.91 in 5.0 mi Calm Calm - 0.13 in   Mostly Cloudy
4:15 PM 80.6 °F 86.2 °F 75.2 °F 84% 29.91 in 10.0 mi Calm Calm - N/A   Scattered Clouds
4:35 PM 80.6 °F 85.4 °F 73.4 °F 79% 29.91 in 10.0 mi Calm Calm - N/A   Clear
4:55 PM 80.6 °F 85.4 °F 73.4 °F 79% 29.91 in 10.0 mi NNE 3.5 mph - N/A   Clear
5:15 PM 80.6 °F 86.2 °F 75.2 °F 84% 29.91 in 10.0 mi Calm Calm - N/A   Scattered Clouds
5:35 PM 82.4 °F 88.2 °F 73.4 °F 74% 29.91 in 10.0 mi Calm Calm - N/A   Scattered Clouds
5:55 PM 80.6 °F 85.4 °F 73.4 °F 79% 29.91 in 10.0 mi Calm Calm - N/A   Clear
6:15 PM 78.8 °F - 73.4 °F 83% 29.91 in 10.0 mi Calm Calm - N/A   Clear
6:35 PM 77.0 °F - 77.0 °F 100% 29.91 in 10.0 mi Calm Calm - N/A   Clear
6:55 PM 73.4 °F - 73.4 °F 100% 29.91 in 7.0 mi Calm Calm - N/A   Clear
7:15 PM 77.0 °F - 77.0 °F 100% 29.92 in 10.0 mi Calm Calm - N/A   Clear
7:35 PM 77.0 °F - 77.0 °F 100% 29.92 in 10.0 mi ENE 3.5 mph - N/A   Scattered Clouds
7:55 PM 75.2 °F - 75.2 °F 100% 29.93 in 10.0 mi Calm Calm - N/A   Clear
8:15 PM 73.4 °F - 73.4 °F 100% 29.93 in 10.0 mi Calm Calm - N/A   Clear
8:35 PM 73.4 °F - 73.4 °F 100% 29.93 in 10.0 mi Calm Calm - N/A   Scattered Clouds
8:55 PM 73.4 °F - 73.4 °F 100% 29.95 in 10.0 mi WSW 3.5 mph - N/A   Scattered Clouds
9:15 PM 73.4 °F - 73.4 °F 100% 29.96 in 10.0 mi Calm Calm - N/A   Mostly Cloudy
9:35 PM 73.4 °F - 73.4 °F 100% 29.96 in 7.0 mi Calm Calm - N/A Rain Rain
9:55 PM 73.4 °F - 73.4 °F 100% 29.97 in 7.0 mi Calm Calm - N/A   Mostly Cloudy
10:15 PM 73.4 °F - 73.4 °F 100% 29.97 in 10.0 mi Calm Calm - N/A   Mostly Cloudy
10:35 PM 71.6 °F - 71.6 °F 100% 29.98 in 4.0 mi Calm Calm - N/A   Mostly Cloudy
10:55 PM 71.6 °F - 71.6 °F 100% 29.97 in 5.0 mi Calm Calm - N/A   Scattered Clouds
11:15 PM 71.6 °F - 71.6 °F 100% 29.96 in 4.0 mi Calm Calm - N/A   Clear
11:35 PM 71.6 °F - 71.6 °F 100% 29.97 in 3.0 mi Calm Calm - N/A   Mostly Cloudy
11:55 PM 71.6 °F - 71.6 °F 100% 29.97 in 5.0 mi Calm Calm - N/A   Scattered Clouds